SCP
0 0 0 0 0 0 0 0 0 0 0 0 0 0 0 0 0 0 0 0 0 0 0 0 0 0 0 0 0 0 0 0 0 0 0 0 0 0 0 0 0 0 0
0 0 0 0 0 0 0 0 0 0 0 0 0 0 0 0 0 0 0 0 0 0 0 0 0 0 0 0 0 0 0 0 0 0 0 0 0 0 0 0 0 0 0
0 0 0 0 0 0 0 0 0 0 0 0 0 0 0 0 0 0 0 0 0 0 0 0 0 0 0 0 0 0 0 0 0 0 0 0 0 0 0 0 0 0 0
0 0 0 0 0 0 0 0 0 0 0 0 0 0 0 0 0 0 0 0 0 0 0 0 0 0 0 0 0 0 0 0 0 0 0 0 0 0 0 0 0 0 0
0 0 0 0 0 0 0 0 0 0 0 0 0 0 0 0 0 0 0 0 0 0 0 0 0 0 0 0 0 0 0 0 0 -0 -0 -0 0 0 0 0 0 0 0
0 0 0 0 0 0 0 0 0 0 0 0 0 0 0 0 0 0 0 0 0 0 0 0 0 0 0 0 0 0 0 0 0 0 -0 -0 0 0 0 0 0 0 0
0 0 0 0 0 0 0 0 0 0 0 0 0 0 0 0 0 0 0 0 0 0 0 0 0 0 0 0 0 0 0 0 0 0 0 0 0 0 0 0 0 0 0
0 0 0 0 0 0 0 0 0 0 0 0 0 0 0 0 0 0 0 0 0 0 0 0 0 0 0 0 0 0 0 0 0 0 0 0 0 0 0 0 0 0 0
0 0 0 0 0 0 0 0 0 0 0 0 0 0 0 0 0 0 0 0 0 0 0 0 0 0 0 0 0 0 0 0 0 0 0 0 0 0 0 0 0 0 0
0 0 0 0 0 0 0 0 0 0 0 0 0 0 0 0 0 0 0 0 0 0 0 0 0 0 0 0 0 0 0 0 0 0 0 0 0 0 0 0 0 0 0
0 0 0 0 0 0 0 0 0 0 0 0 0 0 0 0 0 0 0 0 0 0 0 0 0 0 0 0 0 0 0 0 0 0 0 0 0 0 0 0 0 0 0
0 0 0 0 0 0 0 0 0 0 0 0 0 0 0 0 0 0 0 0 0 0 0 0 0 0 0 0 0 0 0 0 0 0 0 0 0 0 0 0 0 0 0
0 0 0 0 0 0 0 0 0 0 0 0 0 0 0 0 0 0 0 0 0 0 0 0 0 0 0 0 0 0 0 0 0 0 0 0 0 0 0 0 0 0 0
0 0 0 0 0 0 0 0 0 0 0 0 0 0 0 0 0 0 0 0 0 0 0 0 0 0 0 0 0 0 0 0 0 0 0 0 0 0 0 0 0 0 0
0 0 0 0 0 0 0 0 0 0 0 0 0 0 0 0 0 0 0 0 0 0 0 0 0 0 0 0 0 0 0 0 0 0 0 0 0 0 0 0 0 0 0
0 0 -0 -0 0 0 0 0 0 0 0 0 0 0 0 0 0 0 0 0 0 0 0 0 0 0 0 0 0 0 0 0 0 0 0 0 0 0 0 0 0 0 0
0 0 -0 0 0 0 0 0 0 0 0 0 0 0 0 0 0 0 0 0 0 0 0 0 0 0 0 0 0 0 0 0 0 0 0 0 0 0 0 0 0 0 0
0 0 -0 0 0 0 0 0 0 0 0 0 0 0 0 0 0 0 0 0 0 0 0 0 0 0 0 0 0 0 0 0 0 0 0 0 0 0 0 0 0 0 0
-0 -0 0 0 0 0 0 0 0 0 0 0 0 0 0 0 0 0 0 0 0 0 0 0 0 0 0 0 0 0 0 0 0 0 0 0 0 0 0 0 0 0 0
-0 0 0 0 0 0 0 0 0 0 0 0 0 0 0 0 0 0 0 0 0 0 0 0 0 0 0 0 0 0 0 0 0 0 0 0 0 0 0 0 0 0 0
0 0 0 0 0 0 0 0 0 0 0 0 0 0 0 0 0 0 0 0 0 0 0 0 0 0 0 0 0 0 0 0 0 0 0 0 0 0 0 0 0 0 0
0 0 0 0 0 0 0 0 0 0 0 0 0 0 0 0 0 0 0 0 0 0 0 0 0 0 0 0 0 0 0 0 0 0 0 0 0 0 0 0 0 0 0
0 0 0 0 0 -0 0 0 0 0 0 0 0 0 0 0 0 0 0 0 0 0 0 0 0 0 0 0 0 0 0 0 0 0 0 0 0 0 0 0 0 0 0
-0 0 0 0 0 0 0 0 0 0 0 0 0 0 0 0 0 0 0 0 0 0 0 0 0 0 0 0 0 0 0 0 0 0 0 0 0 0 0 0 0 0 0
0 0 0 0 0 0 0 0 0 0 0 0 0 0 0 0 0 0 0 0 0 0 0 0 0 0 0 0 0 0 0 0 0 0 0 0 0 0 0 0 0 0 0
0 0 0 0 0 0 0 0 0 0 0 0 0 0 0 0 0 0 0 0 0 0 0 0 0 0 0 0 0 0 0 0 0 0 0 0 0 0 0 0 0 0 0
Wind_Speed
2 2 2 3 3 2 2 2 2 2 2 2 2 1 1 1 1 2 2 2 2 2 3 2 2 2 2 3 3 3 3 2 2 2 1 1 1 2 2 2 2 1 1
2 2 2 3 3 3 2 3 3 3 2 1 1 2 1 1 1 1 2 2 2 2 3 3 2 2 2 3 3 3 3 2 2 2 1 0 1 1 1 2 2 2 1
3 3 3 3 3 3 2 3 2 3 3 2 1 2 2 1 1 1 1 2 2 2 2 2 3 2 2 2 2 2 3 3 1 2 2 2 2 1 1 2 2 2 1
3 3 3 3 3 3 2 2 3 3 3 2 2 3 2 2 1 1 1 2 2 2 2 3 3 3 2 2 2 1 2 3 2 1 0 1 3 2 1 1 1 2 2
3 3 4 3 3 3 3 2 3 3 3 3 3 3 2 1 1 1 2 2 2 2 2 2 2 2 2 2 2 1 1 2 2 2 1 0 1 1 2 2 2 1 1
3 3 4 4 3 3 3 3 3 3 3 3 3 3 3 2 2 2 2 1 1 1 2 2 2 2 2 2 2 2 2 2 2 2 1 2 2 2 2 2 2 2 2
3 3 3 3 3 3 3 3 3 3 3 3 3 3 3 3 2 2 3 2 2 1 2 2 2 2 2 2 2 2 1 2 2 2 1 1 2 1 1 2 2 2 2
3 3 3 2 2 3 3 3 3 2 2 2 2 2 3 2 2 2 2 2 2 2 2 2 2 2 2 2 2 2 1 1 2 2 1 1 1 1 1 2 2 2 3
3 2 2 2 2 2 3 3 4 3 3 2 2 2 2 2 2 2 2 1 1 2 2 2 2 2 2 2 2 2 2 2 2 2 2 1 1 1 1 1 2 3 3
2 2 2 2 2 2 2 3 3 3 3 3 2 2 1 2 2 2 2 2 2 2 2 2 2 2 1 1 2 1 2 2 2 1 1 2 1 1 1 2 2 2 3
2 2 1 1 2 3 3 2 2 2 3 2 2 2 2 2 2 2 2 2 2 2 2 2 2 2 2 2 2 2 2 2 2 1 2 2 2 2 2 2 2 2 2
2 2 2 2 2 2 2 2 2 2 3 3 2 2 2 2 2 2 2 2 2 2 2 2 1 1 1 2 2 2 2 2 2 2 2 2 2 2 2 2 3 3 3
3 3 2 2 2 1 1 2 2 2 2 2 2 2 3 2 2 1 2 2 1 1 1 1 1 1 1 1 1 2 2 2 2 2 3 3 3 3 3 3 3 3 3
2 2 2 1 1 1 1 1 2 2 2 3 3 3 3 3 2 2 2 1 1 2 1 1 1 1 1 1 1 1 2 2 2 2 3 3 4 4 4 3 3 3 3
1 1 1 1 1 1 1 1 1 2 2 3 3 3 2 2 2 2 1 1 1 1 1 1 1 1 1 2 2 2 2 2 2 2 2 3 4 4 4 4 3 3 3
1 0 1 1 1 1 1 1 1 1 2 2 2 2 2 2 2 1 1 1 1 1 1 2 2 2 1 2 3 2 2 2 3 3 3 3 4 4 6 7 7 6 5
0 0 0 0 1 1 1 1 1 1 2 2 2 2 2 2 2 1 1 1 1 1 1 1 1 1 2 3 4 4 2 3 3 3 3 3 3 4 4 5 7 7 9
0 0 0 0 0 1 1 2 2 1 1 2 2 2 2 1 1 1 1 1 1 1 1 1 1 1 2 4 4 3 2 2 3 4 4 3 3 4 4 4 4 4 5
1 1 1 1 1 1 1 2 2 1 1 1 1 1 2 1 1 1 1 1 1 1 1 1 1 1 2 4 3 3 1 2 3 3 3 3 3 6 6 4 3 4 4
2 2 2 2 2 1 2 2 1 1 1 1 1 1 1 1 1 2 1 1 1 1 1 1 2 2 2 4 4 3 1 2 2 2 3 5 5 6 6 3 3 4 5
2 2 2 2 1 1 1 1 1 1 1 1 1 0 0 1 1 1 1 1 1 1 1 2 2 2 3 4 4 4 2 2 2 2 2 3 5 6 6 5 4 6 6
3 2 2 2 2 2 1 0 0 0 1 1 0 0 1 1 0 1 1 1 2 2 2 2 2 1 2 3 4 5 4 3 2 2 2 3 5 6 7 5 6 8 6
2 2 1 1 1 1 1 0 0 1 1 0 0 1 1 1 1 1 1 1 2 2 2 2 2 2 2 2 4 5 5 4 3 2 4 5 6 6 4 5 7 6 2
2 2 2 1 1 1 1 1 0 0 0 0 1 1 1 1 1 1 1 1 2 2 2 2 2 2 2 2 2 2 2 3 3 2 4 5 6 5 5 5 4 2 2
2 2 1 1 1 1 1 1 1 1 0 1 1 1 1 1 1 1 2 2 3 3 3 3 3 3 3 4 4 3 2 2 3 3 2 2 2 2 2 2 2 2 2
2 2 2 1 1 1 1 1 1 1 1 1 1 1 1 1 1 1 2 3 3 4 5 5 4 4 5 5 5 5 5 5 5 2 2 2 2 2 2 2 2 2 2
Wind_Direction
187 152 145 136 122 120 133 137 134 135 128 134 139 135 154 174 158 161 152 141 145 155 146 152 157 150 143 147 140 137 133 130 113 85 51 331 228 165 161 156 147 135 133
185 153 137 127 136 144 146 137 142 141 135 156 162 157 147 154 159 157 144 139 150 153 150 152 153 151 148 145 141 147 137 155 139 134 134 45 325 260 183 169 169 170 156
176 158 142 135 139 139 140 147 145 141 138 145 133 120 90 80 97 121 155 156 149 146 140 147 146 149 147 151 155 158 152 169 188 162 155 159 204 290 261 205 182 168 167
167 153 151 156 154 144 139 150 146 142 139 138 141 142 137 146 171 154 152 150 138 139 149 148 143 146 144 155 164 154 157 160 177 193 161 169 155 157 273 278 232 197 199
157 154 154 158 146 139 148 154 144 142 139 141 143 136 114 112 106 115 118 128 131 132 138 136 129 135 147 158 148 142 163 164 174 175 193 225 148 166 185 249 264 273 240
146 139 134 135 136 143 151 152 146 141 139 142 140 136 127 115 108 123 137 134 131 133 137 134 137 146 152 160 163 158 171 178 175 173 176 182 193 202 199 229 244 251 255
131 125 128 136 145 148 147 149 148 149 147 152 150 150 139 134 136 138 148 149 148 142 157 147 150 152 149 153 153 143 167 179 173 184 195 204 222 207 212 217 247 263 263
110 116 126 137 144 144 146 145 144 141 140 149 148 148 141 137 140 136 138 145 150 152 152 146 148 146 143 150 148 143 168 171 173 191 195 219 235 230 216 217 227 266 276
106 118 120 127 136 144 148 147 147 141 140 138 127 123 131 128 129 132 127 126 129 129 136 141 148 141 141 156 154 155 179 180 188 194 196 222 236 223 225 223 207 214 255
106 106 121 128 133 138 133 138 144 151 148 145 141 130 129 129 126 122 126 123 116 123 139 146 148 142 149 164 165 167 182 185 197 196 201 233 246 240 228 226 236 225 232
126 115 101 107 120 122 119 123 128 129 133 130 124 122 129 123 122 124 127 124 119 136 145 154 153 156 165 173 172 182 193 200 209 211 212 239 246 247 244 240 239 244 232
102 99 96 100 105 118 129 135 134 134 140 139 134 131 125 114 113 114 118 119 133 142 143 150 154 167 170 179 182 196 212 209 210 214 221 245 254 251 246 240 239 243 238
103 97 92 100 107 108 122 139 139 139 137 136 134 130 128 123 123 117 117 129 147 143 149 154 166 183 183 181 195 208 222 224 217 213 223 236 233 243 243 243 244 249 255
117 113 114 113 104 103 104 132 139 138 139 137 140 143 141 137 139 137 136 138 145 151 158 157 179 196 200 203 205 215 227 235 238 231 233 236 233 234 232 241 240 244 246
107 113 127 130 105 83 66 63 109 126 141 143 144 145 137 130 130 130 127 126 142 160 154 154 180 200 212 210 202 212 226 234 242 248 249 249 248 248 248 250 240 235 240
113 137 130 118 120 115 100 64 76 108 134 138 140 134 133 130 128 131 127 132 154 168 157 175 190 214 238 230 244 255 241 240 235 245 257 258 258 260 268 266 264 254 245
165 188 152 142 124 137 133 136 112 107 114 125 128 131 130 133 142 147 147 162 174 163 171 182 184 216 227 236 247 256 259 242 237 238 246 259 258 265 253 263 272 271 268
335 184 108 83 72 99 112 114 108 110 122 124 125 129 134 143 153 164 184 197 183 179 201 207 209 228 239 246 253 260 263 253 245 238 237 244 252 253 258 251 256 256 262
17 52 69 58 77 89 100 104 102 110 118 130 138 144 140 151 181 205 211 206 194 207 220 212 215 223 243 250 256 272 252 252 255 255 248 250 250 259 273 265 255 264 268
44 53 40 38 59 59 93 117 138 144 158 150 129 118 131 173 222 231 227 212 193 208 219 229 222 219 231 247 257 270 247 246 256 261 259 257 260 266 267 254 243 260 271
46 53 49 38 54 61 83 127 147 169 145 113 110 127 181 215 225 244 249 203 194 202 224 233 240 230 235 241 252 260 259 234 242 251 257 258 268 277 276 270 250 258 275
32 39 45 31 32 52 71 117 191 92 78 90 141 200 233 248 236 219 251 225 197 206 226 227 243 237 229 237 248 255 265 276 253 252 253 257 276 287 288 281 269 278 286
16 23 39 33 29 45 71 257 242 109 115 143 235 244 246 236 216 211 221 221 210 217 226 222 237 250 240 238 249 256 264 281 286 266 273 287 290 294 292 280 283 288 276
5 8 22 23 3 14 37 340 327 82 107 266 287 273 250 264 262 244 222 223 224 228 234 234 240 250 250 243 240 243 258 273 281 281 276 284 285 282 276 284 285 269 253
2 6 2 342 323 340 354 354 359 21 328 282 278 274 258 249 264 268 249 242 237 233 239 238 233 236 246 249 262 276 274 264 260 285 283 277 277 273 274 278 274 266 269
2 357 350 348 346 350 340 342 357 358 305 291 289 281 270 265 260 273 298 291 273 276 268 263 260 264 262 264 265 272 279 279 274 280 262 267 269 266 267 273 277 269 263